When you browse on this site, cookies collect data to enhance your experience and personalize the content and advertising you see.
Visit our Privacy Policy to learn more. By continuing to use the site, you agree to this use of cookies and data.
  • In Latvia
  • List of Countries
  • For 7 days
  • Water Temperature
  • Weather Map
  • Weather Widgets
  • user-avatar
    Login

    Hourly Weather Hrazdan

    Today, 19 October, Saturday

    Time Temperature Precipitation Wind Pressure Humidity
    00:00 +11°C° 0 mm 1 mps 615 mmHg 51%
    01:00 +11°C° 0 mm 1 mps 615 mmHg 52%
    02:00 +11°C° 0 mm 1 mps 614 mmHg 53%
    03:00 +10°C° 0 mm 1 mps 614 mmHg 57%
    04:00 +10°C° 0 mm 1 mps 614 mmHg 57%
    05:00 +10°C° 0 mm 1 mps 615 mmHg 57%
    06:00 +10°C° 0 mm 1 mps 615 mmHg 57%
    07:00 +12°C° 0 mm 1 mps 615 mmHg 51%
    08:00 +14°C° 0 mm 1 mps 616 mmHg 45%
    09:00 +16°C° 0 mm 1 mps 617 mmHg 40%
    10:00 +17°C° 0 mm 2 mps 617 mmHg 38%
    11:00 +18°C° 0 mm 2 mps 617 mmHg 36%
    12:00 +19°C° 0 mm 3 mps 617 mmHg 34%
    13:00 +19°C° 0.1 mm 2 mps 617 mmHg 35%
    14:00 +18°C° 0.1 mm 2 mps 616 mmHg 35%
    15:00 +18°C° 0.1 mm 2 mps 616 mmHg 36%
    16:00 +18°C° 0.1 mm 1 mps 616 mmHg 43%
    17:00 +15°C° 0.1 mm 1 mps 615 mmHg 49%
    18:00 +13°C° 0.1 mm 1 mps 615 mmHg 56%
    19:00 +13°C° 0.1 mm 1 mps 615 mmHg 59%
    20:00 +12°C° 0.1 mm 1 mps 615 mmHg 62%
    21:00 +11°C° 0.1 mm 1 mps 615 mmHg 65%
    22:00 +11°C° 0 mm 1 mps 615 mmHg 67%
    23:00 +11°C° 0 mm 1 mps 615 mmHg 69%

    Tomorrow, 20 October, Sunday

    Time Temperature Precipitation Wind Pressure Humidity
    00:00 +10°C° 0 mm 1 mps 615 mmHg 71%
    01:00 +10°C° 0 mm 1 mps 615 mmHg 71%
    02:00 +10°C° 0 mm 1 mps 615 mmHg 71%
    03:00 +9°C° 0 mm 1 mps 614 mmHg 72%
    04:00 +9°C° 0 mm 1 mps 614 mmHg 73%
    05:00 +9°C° 0 mm 1 mps 614 mmHg 74%
    06:00 +9°C° 0 mm 1 mps 614 mmHg 75%
    07:00 +10°C° 0 mm 1 mps 615 mmHg 68%
    08:00 +12°C° 0 mm 1 mps 616 mmHg 62%
    09:00 +14°C° 0 mm 2 mps 617 mmHg 55%
    10:00 +15°C° 0.2 mm 2 mps 617 mmHg 52%
    11:00 +16°C° 0.2 mm 2 mps 617 mmHg 48%
    12:00 +18°C° 0.2 mm 2 mps 618 mmHg 44%
    13:00 +17°C° 0.5 mm 2 mps 617 mmHg 45%
    14:00 +17°C° 0.5 mm 2 mps 617 mmHg 46%
    15:00 +17°C° 0.5 mm 2 mps 616 mmHg 47%
    16:00 +15°C° 0.2 mm 2 mps 616 mmHg 57%
    17:00 +14°C° 0.2 mm 2 mps 616 mmHg 66%
    18:00 +12°C° 0.2 mm 2 mps 615 mmHg 75%
    19:00 +12°C° 0.1 mm 2 mps 615 mmHg 79%
    20:00 +10°C° 0.1 mm 2 mps 615 mmHg 82%
    21:00 +10°C° 0.1 mm 2 mps 615 mmHg 85%
    22:00 +9°C° 0 mm 2 mps 616 mmHg 86%
    23:00 +9°C° 0 mm 2 mps 616 mmHg 86%

    Day after tomorrow, 21 October, Monday

    Time Temperature Precipitation Wind Pressure Humidity
    00:00 +9°C° 0 mm 2 mps 616 mmHg 87%
    01:00 +9°C° 0 mm 2 mps 616 mmHg 87%
    02:00 +9°C° 0 mm 1 mps 616 mmHg 87%
    03:00 +9°C° 0 mm 1 mps 615 mmHg 87%
    04:00 +8°C° 0 mm 2 mps 615 mmHg 87%
    05:00 +8°C° 0 mm 2 mps 616 mmHg 87%
    06:00 +8°C° 0 mm 2 mps 616 mmHg 86%
    07:00 +9°C° 0 mm 2 mps 616 mmHg 83%
    08:00 +10°C° 0 mm 2 mps 616 mmHg 79%
    09:00 +10°C° 0 mm 2 mps 617 mmHg 75%
    10:00 +12°C° 0 mm 2 mps 617 mmHg 71%
    11:00 +13°C° 0 mm 2 mps 617 mmHg 68%
    12:00 +14°C° 0 mm 2 mps 617 mmHg 64%
    13:00 +14°C° 0.1 mm 2 mps 616 mmHg 64%
    14:00 +14°C° 0.1 mm 2 mps 616 mmHg 64%
    15:00 +14°C° 0.1 mm 2 mps 616 mmHg 64%
    16:00 +13°C° 0.1 mm 2 mps 616 mmHg 71%
    17:00 +12°C° 0.1 mm 2 mps 615 mmHg 78%
    18:00 +9°C° 0.1 mm 2 mps 615 mmHg 85%
    19:00 +9°C° 0.1 mm 2 mps 615 mmHg 86%
    20:00 +9°C° 0.1 mm 2 mps 615 mmHg 86%
    21:00 +9°C° 0.1 mm 2 mps 615 mmHg 87%
    22:00 +9°C° 0 mm 2 mps 615 mmHg 87%
    23:00 +9°C° 0 mm 2 mps 615 mmHg 87%

    22 October, Tuesday

    Time Temperature Precipitation Wind Pressure Humidity
    00:00 +9°C° 0 mm 2 mps 615 mmHg 86%
    01:00 +8°C° 0 mm 2 mps 615 mmHg 87%
    02:00 +8°C° 0 mm 2 mps 615 mmHg 87%
    03:00 +8°C° 0 mm 2 mps 615 mmHg 88%
    04:00 +8°C° 0 mm 2 mps 615 mmHg 88%
    05:00 +7°C° 0 mm 2 mps 614 mmHg 89%
    06:00 +8°C° 0 mm 1 mps 614 mmHg 89%
    07:00 +9°C° 0 mm 1 mps 615 mmHg 83%
    08:00 +10°C° 0 mm 1 mps 615 mmHg 77%
    09:00 +11°C° 0 mm 1 mps 616 mmHg 71%
    10:00 +12°C° 0.3 mm 2 mps 616 mmHg 65%
    11:00 +13°C° 0.3 mm 2 mps 616 mmHg 60%
    12:00 +15°C° 0.3 mm 2 mps 616 mmHg 55%
    13:00 +15°C° 0.7 mm 2 mps 616 mmHg 54%
    14:00 +15°C° 0.7 mm 2 mps 616 mmHg 54%
    15:00 +15°C° 0.7 mm 2 mps 615 mmHg 53%
    16:00 +13°C° 0.4 mm 2 mps 615 mmHg 60%
    17:00 +12°C° 0.4 mm 1 mps 615 mmHg 67%
    18:00 +10°C° 0.4 mm 1 mps 614 mmHg 73%
    19:00 +10°C° 0 mm 1 mps 614 mmHg 76%
    20:00 +9°C° 0 mm 1 mps 614 mmHg 79%
    21:00 +8°C° 0 mm 1 mps 614 mmHg 82%
    22:00 +8°C° 0 mm 1 mps 614 mmHg 83%
    23:00 +8°C° 0 mm 1 mps 614 mmHg 83%

    23 October, Wednesday

    Time Temperature Precipitation Wind Pressure Humidity
    00:00 +7°C° 0 mm 1 mps 614 mmHg 84%
    01:00 +7°C° 0 mm 1 mps 614 mmHg 84%
    02:00 +7°C° 0 mm 1 mps 614 mmHg 85%
    03:00 +7°C° 0 mm 1 mps 614 mmHg 85%
    04:00 +6°C° 0 mm 1 mps 614 mmHg 84%
    05:00 +6°C° 0 mm 1 mps 613 mmHg 83%
    06:00 +6°C° 0 mm 1 mps 613 mmHg 83%
    07:00 +8°C° 0 mm 1 mps 614 mmHg 76%
    08:00 +10°C° 0 mm 1 mps 615 mmHg 69%
    09:00 +11°C° 0 mm 1 mps 616 mmHg 62%
    10:00 +13°C° 0 mm 1 mps 616 mmHg 59%
    11:00 +14°C° 0 mm 2 mps 616 mmHg 56%
    12:00 +15°C° 0 mm 2 mps 616 mmHg 53%
    13:00 +15°C° 0 mm 2 mps 616 mmHg 52%
    14:00 +15°C° 0 mm 2 mps 616 mmHg 52%
    15:00 +15°C° 0 mm 2 mps 616 mmHg 52%
    16:00 +13°C° 0 mm 2 mps 615 mmHg 60%
    17:00 +10°C° 0 mm 2 mps 615 mmHg 67%
    18:00 +10°C° 0 mm 1 mps 614 mmHg 75%
    19:00 +9°C° 0 mm 1 mps 614 mmHg 79%
    20:00 +8°C° 0 mm 2 mps 614 mmHg 82%
    21:00 +7°C° 0 mm 2 mps 614 mmHg 86%
    22:00 +7°C° 0 mm 2 mps 614 mmHg 87%
    23:00 +6°C° 0 mm 2 mps 614 mmHg 88%

    24 October, Thursday

    Time Temperature Precipitation Wind Pressure Humidity
    00:00 +6°C° 0 mm 2 mps 614 mmHg 88%
    01:00 +6°C° 0 mm 2 mps 614 mmHg 88%
    02:00 +6°C° 0 mm 2 mps 614 mmHg 87%
    03:00 +6°C° 0 mm 2 mps 614 mmHg 87%
    04:00 +6°C° 0 mm 2 mps 614 mmHg 87%
    05:00 +6°C° 0 mm 2 mps 614 mmHg 87%
    06:00 +7°C° 0 mm 1 mps 614 mmHg 87%
    07:00 +8°C° 0 mm 1 mps 615 mmHg 82%
    08:00 +9°C° 0 mm 1 mps 615 mmHg 76%
    09:00 +10°C° 0 mm 1 mps 616 mmHg 71%
    10:00 +10°C° 0 mm 2 mps 616 mmHg 66%
    11:00 +13°C° 0 mm 2 mps 616 mmHg 61%
    12:00 +14°C° 0 mm 2 mps 616 mmHg 56%
    13:00 +14°C° 0 mm 2 mps 616 mmHg 55%
    14:00 +14°C° 0 mm 2 mps 616 mmHg 55%
    15:00 +14°C° 0 mm 2 mps 616 mmHg 55%
    16:00 +12°C° 0 mm 1 mps 615 mmHg 64%
    17:00 +11°C° 0 mm 1 mps 615 mmHg 73%
    18:00 +9°C° 0 mm 1 mps 614 mmHg 82%
    19:00 +9°C° 0 mm 1 mps 614 mmHg 83%
    20:00 +9°C° 0 mm 1 mps 615 mmHg 85%
    21:00 +8°C° 0 mm 1 mps 615 mmHg 86%
    22:00 +8°C° 0 mm 1 mps 615 mmHg 86%
    23:00 +8°C° 0 mm 1 mps 615 mmHg 86%
    Show more